Location: Launois
(49.6535°N, 4.5395°E)
Time: 09:44:25
(UTC+00:00)

PSLV DEB - Visible Passes

Search period start: 06 October 2024 00:00
Search period end: 16 October 2024 00:00
Orbit: 612 x 632 km, 98.2° (Epoch: 05 October)

Date Brightness Start Highest point End Pass type
(mag) Time Alt. Az. Time Alt. Az. Time Alt. Az.
06 Oct ? 18:07:14 10° SE 18:11:22 44° ENE 18:15:33 10° N visible
06 Oct ? 19:44:15 10° SW 19:47:42 23° W 19:51:11 10° NW visible
07 Oct ? 18:24:56 10° SSE 18:29:15 65° ENE 18:33:36 10° N visible
07 Oct ? 20:03:09 10° SW 20:05:49 16° W 20:08:29 10° NW visible
08 Oct ? 18:42:47 10° SSE 18:47:08 85° WSW 18:51:33 10° NNW visible
08 Oct ? 20:23:04 10° W 20:23:57 11° W 20:24:52 10° WNW visible
09 Oct ? 17:26:12 10° ESE 17:29:19 20° ENE 17:32:29 10° NNE visible
09 Oct ? 19:00:47 10° S 19:05:03 57° WSW 19:09:24 10° NNW visible
10 Oct ? 17:43:23 10° ESE 17:47:03 27° ENE 17:50:44 10° N visible
10 Oct ? 19:18:57 10° SSW 19:23:01 38° W 19:27:08 10° NNW visible
11 Oct ? 18:00:46 10° SE 18:04:48 38° ENE 18:08:52 10° N visible
11 Oct ? 19:37:19 10° SSW 19:41:00 26° W 19:44:44 10° NW visible
12 Oct ? 18:18:19 10° SSE 18:22:34 55° ENE 18:26:53 10° N visible
12 Oct ? 19:55:58 10° SW 19:59:02 18° W 20:02:07 10° NW visible
13 Oct ? 18:36:01 10° SSE 18:40:22 82° ENE 18:44:48 10° NNW visible
13 Oct ? 20:15:09 10° WSW 20:17:05 13° W 20:19:01 10° WNW visible
14 Oct ? 17:19:44 10° E 17:22:35 17° ENE 17:25:26 10° NNE visible
14 Oct ? 18:53:58 11° S 18:58:13 68° WSW 19:02:36 10° NNW visible
15 Oct ? 17:36:44 10° ESE 17:40:13 24° ENE 17:43:43 10° N visible
15 Oct ? 19:12:15 12° S 19:16:05 46° W 19:20:20 10° NNW visible
